contact:dominique.lefevre@mio.osupytheas.fr, maurice.libes@osupytheas.fr, didier.mallarino@osupytheas.fr
Project:EMSO http://www.emso-fr.org/EMSO-France
Depth: 2436.0 m
Title:EMSO Ligure Ouest : Data MII capteur CSTAR
DateTime,Latitude,Longitude,Instrument_Serial,Reference_Counts,Signal_Counts,Corrected_Signal_raw_counts,Calculated_Beam_c_inverse_meters,Internal_thermistor_counts
DateTime,Latitude,Longitude,Instrument_Serial,Reference_Counts,Signal_Counts,Corrected_Signal_raw_counts,Calculated_Beam_c_inverse_meters,Internal_thermistor_counts
2023-03-17T00:00:48,42.805,6.029,CST-1368DR,4351,4745,11584,01.195,551
2023-03-17T00:03:50,42.805,6.029,CST-1368DR,4351,4747,11589,01.193,551
2023-03-17T00:06:51,42.805,6.029,CST-1368DR,4351,4746,11586,01.194,551
2023-03-17T00:09:53,42.805,6.029,CST-1368DR,4351,4743,11580,01.196,551
2023-03-17T00:12:55,42.805,6.029,CST-1368DR,4351,4746,11587,01.194,551
2023-03-17T00:15:56,42.805,6.029,CST-1368DR,4351,4744,11582,01.195,551
2023-03-17T00:18:58,42.805,6.029,CST-1368DR,4351,4745,11584,01.195,551
2023-03-17T00:21:59,42.805,6.029,CST-1368DR,4351,4744,11581,01.196,551
2023-03-17T00:25:01,42.805,6.029,CST-1368DR,4351,4745,11583,01.195,551
2023-03-17T00:28:02,42.805,6.029,CST-1368DR,4351,4743,11580,01.196,551
2023-03-17T00:31:04,42.805,6.029,CST-1368DR,4351,4742,11576,01.197,551
2023-03-17T00:34:06,42.805,6.029,CST-1368DR,4351,4742,11576,01.197,551
2023-03-17T00:37:07,42.805,6.029,CST-1368DR,4351,4744,11582,01.195,551
2023-03-17T00:40:09,42.805,6.029,CST-1368DR,4351,4746,11586,01.194,551
2023-03-17T00:43:10,42.805,6.029,CST-1368DR,4351,4744,11581,01.196,551
2023-03-17T00:46:12,42.805,6.029,CST-1368DR,4351,4743,11580,01.196,551
2023-03-17T00:49:13,42.805,6.029,CST-1368DR,4351,4744,11582,01.195,551
2023-03-17T00:52:15,42.805,6.029,CST-1368DR,4351,4747,11588,01.193,551
2023-03-17T00:55:17,42.805,6.029,CST-1368DR,4351,4747,11587,01.194,551
2023-03-17T00:58:18,42.805,6.029,CST-1368DR,4351,4744,11581,01.196,551
2023-03-17T01:01:20,42.805,6.029,CST-1368DR,4351,4741,11574,01.198,551
2023-03-17T01:04:21,42.805,6.029,CST-1368DR,4351,4739,11569,01.200,551
2023-03-17T01:07:23,42.805,6.029,CST-1368DR,4351,4743,11579,01.196,551
2023-03-17T01:10:25,42.805,6.029,CST-1368DR,4351,4742,11577,01.197,551
2023-03-17T01:13:26,42.805,6.029,CST-1368DR,4351,4738,11565,01.201,551
2023-03-17T01:16:28,42.805,6.029,CST-1368DR,4351,4739,11570,01.200,551
2023-03-17T01:19:29,42.805,6.029,CST-1368DR,4351,4740,11572,01.199,551
2023-03-17T01:22:31,42.805,6.029,CST-1368DR,4351,4743,11578,01.197,551
2023-03-17T01:25:32,42.805,6.029,CST-1368DR,4351,4741,11573,01.198,551
2023-03-17T01:28:34,42.805,6.029,CST-1368DR,4351,4742,11577,01.197,551
2023-03-17T01:31:36,42.805,6.029,CST-1368DR,4351,4742,11576,01.197,551
2023-03-17T01:34:37,42.805,6.029,CST-1368DR,4351,4743,11578,01.197,551
2023-03-17T01:37:39,42.805,6.029,CST-1368DR,4351,4744,11582,01.195,551
2023-03-17T01:40:40,42.805,6.029,CST-1368DR,4351,4744,11580,01.196,551
2023-03-17T01:43:42,42.805,6.029,CST-1368DR,4351,4748,11592,01.192,551
2023-03-17T01:46:44,42.805,6.029,CST-1368DR,4351,4741,11573,01.198,551
2023-03-17T01:49:45,42.805,6.029,CST-1368DR,4351,4741,11573,01.198,551
2023-03-17T01:52:47,42.805,6.029,CST-1368DR,4351,4747,11589,01.193,551
2023-03-17T01:55:48,42.805,6.029,CST-1368DR,4351,4744,11582,01.195,551
2023-03-17T01:58:50,42.805,6.029,CST-1368DR,4351,4746,11585,01.194,551
2023-03-17T02:01:51,42.805,6.029,CST-1368DR,4351,4744,11581,01.196,551
2023-03-17T02:04:53,42.805,6.029,CST-1368DR,4351,4744,11582,01.195,551
2023-03-17T02:07:55,42.805,6.029,CST-1368DR,4351,4746,11586,01.194,551
2023-03-17T02:10:56,42.805,6.029,CST-1368DR,4351,4745,11584,01.195,551
2023-03-17T02:13:58,42.805,6.029,CST-1368DR,4351,4748,11592,01.192,551
2023-03-17T02:16:59,42.805,6.029,CST-1368DR,4351,4748,11592,01.192,551
2023-03-17T02:20:01,42.805,6.029,CST-1368DR,4351,4745,11584,01.195,551
2023-03-17T02:23:02,42.805,6.029,CST-1368DR,4351,4750,11595,01.191,551
2023-03-17T02:26:04,42.805,6.029,CST-1368DR,4351,4747,11589,01.193,551
2023-03-17T02:29:06,42.805,6.029,CST-1368DR,4351,4746,11586,01.194,551
2023-03-17T02:32:07,42.805,6.029,CST-1368DR,4351,4744,11581,01.196,551
2023-03-17T02:35:09,42.805,6.029,CST-1368DR,4351,4744,11582,01.195,551
2023-03-17T02:38:10,42.805,6.029,CST-1368DR,4351,4740,11572,01.199,551
2023-03-17T02:41:12,42.805,6.029,CST-1368DR,4351,4747,11587,01.194,551
2023-03-17T02:44:14,42.805,6.029,CST-1368DR,4351,4744,11581,01.196,551
2023-03-17T02:47:15,42.805,6.029,CST-1368DR,4351,4750,11595,01.191,551
2023-03-17T02:50:17,42.805,6.029,CST-1368DR,4351,4745,11583,01.195,551
2023-03-17T02:53:18,42.805,6.029,CST-1368DR,4351,4742,11576,01.197,551
2023-03-17T02:56:20,42.805,6.029,CST-1368DR,4351,4747,11588,01.193,551
2023-03-17T02:59:21,42.805,6.029,CST-1368DR,4351,4749,11592,01.192,551
2023-03-17T03:02:23,42.805,6.029,CST-1368DR,4351,4748,11592,01.192,551
2023-03-17T03:05:25,42.805,6.029,CST-1368DR,4351,4739,11569,01.200,551
2023-03-17T03:08:26,42.805,6.029,CST-1368DR,4351,4751,11598,01.190,551
2023-03-17T03:11:28,42.805,6.029,CST-1368DR,4351,4745,11584,01.195,551
2023-03-17T03:14:29,42.805,6.029,CST-1368DR,4351,4739,11569,01.200,551
2023-03-17T03:17:31,42.805,6.029,CST-1368DR,4351,4745,11584,01.195,551
2023-03-17T03:20:32,42.805,6.029,CST-1368DR,4351,4737,11563,01.202,551
2023-03-17T03:23:34,42.805,6.029,CST-1368DR,4351,4747,11589,01.193,551
2023-03-17T03:26:36,42.805,6.029,CST-1368DR,4351,4746,11587,01.194,551
2023-03-17T03:29:37,42.805,6.029,CST-1368DR,4351,4747,11587,01.194,551
2023-03-17T03:32:39,42.805,6.029,CST-1368DR,4351,4742,11575,01.198,551
2023-03-17T03:35:40,42.805,6.029,CST-1368DR,4351,4748,11591,01.192,551
2023-03-17T03:38:42,42.805,6.029,CST-1368DR,4351,4746,11585,01.194,551
2023-03-17T03:41:43,42.805,6.029,CST-1368DR,4351,4742,11577,01.197,551
2023-03-17T03:44:45,42.805,6.029,CST-1368DR,4351,4742,11575,01.198,551
2023-03-17T03:47:47,42.805,6.029,CST-1368DR,4351,4745,11584,01.195,551
2023-03-17T03:50:48,42.805,6.029,CST-1368DR,4351,4747,11587,01.194,551
2023-03-17T03:53:50,42.805,6.029,CST-1368DR,4351,4750,11597,01.190,551
2023-03-17T03:56:51,42.805,6.029,CST-1368DR,4351,4745,11583,01.195,551
2023-03-17T03:59:53,42.805,6.029,CST-1368DR,4351,4749,11592,01.192,551
2023-03-17T04:02:55,42.805,6.029,CST-1368DR,4351,4746,11585,01.194,551
2023-03-17T04:05:56,42.805,6.029,CST-1368DR,4351,4742,11577,01.197,551
2023-03-17T04:08:58,42.805,6.029,CST-1368DR,4351,4748,11591,01.192,551
2023-03-17T04:11:59,42.805,6.029,CST-1368DR,4351,4745,11584,01.195,551
2023-03-17T04:15:01,42.805,6.029,CST-1368DR,4351,4750,11595,01.191,551
2023-03-17T04:18:02,42.805,6.029,CST-1368DR,4351,4744,11581,01.196,551
2023-03-17T04:21:04,42.805,6.029,CST-1368DR,4351,4749,11592,01.192,551
2023-03-17T04:24:06,42.805,6.029,CST-1368DR,4351,4750,11595,01.191,551
2023-03-17T04:27:07,42.805,6.029,CST-1368DR,4351,4747,11589,01.193,551
2023-03-17T04:30:09,42.805,6.029,CST-1368DR,4351,4742,11576,01.197,551
2023-03-17T04:33:10,42.805,6.029,CST-1368DR,4351,4739,11568,01.200,551
2023-03-17T04:36:12,42.805,6.029,CST-1368DR,4351,4745,11583,01.195,551
2023-03-17T04:39:13,42.805,6.029,CST-1368DR,4351,4744,11580,01.196,551
2023-03-17T04:42:15,42.805,6.029,CST-1368DR,4351,4744,11581,01.196,551
2023-03-17T04:45:17,42.805,6.029,CST-1368DR,4351,4739,11569,01.200,551
2023-03-17T04:48:18,42.805,6.029,CST-1368DR,4351,4743,11580,01.196,551
2023-03-17T04:51:20,42.805,6.029,CST-1368DR,4351,4746,11585,01.194,551
2023-03-17T04:54:21,42.805,6.029,CST-1368DR,4351,4744,11580,01.196,551
2023-03-17T04:57:23,42.805,6.029,CST-1368DR,4351,4739,11570,01.200,551
2023-03-17T05:00:25,42.805,6.029,CST-1368DR,4351,4746,11585,01.194,551
2023-03-17T05:03:26,42.805,6.029,CST-1368DR,4351,4746,11585,01.194,551
2023-03-17T05:06:28,42.805,6.029,CST-1368DR,4351,4744,11582,01.195,551
2023-03-17T05:09:29,42.805,6.029,CST-1368DR,4351,4742,11577,01.197,551
2023-03-17T05:12:31,42.805,6.029,CST-1368DR,4351,4739,11569,01.200,551
2023-03-17T05:15:32,42.805,6.029,CST-1368DR,4351,4762,11625,01.181,551
2023-03-17T05:18:34,42.805,6.029,CST-1368DR,4351,4748,11592,01.192,551
2023-03-17T05:21:36,42.805,6.029,CST-1368DR,4351,4745,11584,01.195,551
2023-03-17T05:24:37,42.805,6.029,CST-1368DR,4351,4746,11586,01.194,551
2023-03-17T05:27:39,42.805,6.029,CST-1368DR,4351,4743,11579,01.196,551
2023-03-17T05:30:40,42.805,6.029,CST-1368DR,4351,4744,11580,01.196,551
2023-03-17T05:33:42,42.805,6.029,CST-1368DR,4351,4744,11582,01.195,551
2023-03-17T05:36:43,42.805,6.029,CST-1368DR,4351,4745,11584,01.195,551
2023-03-17T05:39:45,42.805,6.029,CST-1368DR,4351,4743,11579,01.196,551
2023-03-17T05:42:47,42.805,6.029,CST-1368DR,4351,4744,11582,01.195,551
2023-03-17T05:45:48,42.805,6.029,CST-1368DR,4351,4746,11587,01.194,551
2023-03-17T05:48:50,42.805,6.029,CST-1368DR,4351,4739,11569,01.200,551
2023-03-17T05:51:51,42.805,6.029,CST-1368DR,4351,4735,11559,01.203,551
2023-03-17T05:54:53,42.805,6.029,CST-1368DR,4351,4738,11565,01.201,551
2023-03-17T05:57:55,42.805,6.029,CST-1368DR,4351,4743,11578,01.197,551
2023-03-17T06:00:56,42.805,6.029,CST-1368DR,4351,4744,11582,01.195,551
2023-03-17T06:03:58,42.805,6.029,CST-1368DR,4351,4741,11574,01.198,551
2023-03-17T06:06:59,42.805,6.029,CST-1368DR,4351,4740,11572,01.199,551
2023-03-17T06:10:01,42.805,6.029,CST-1368DR,4351,4739,11569,01.200,551
2023-03-17T06:13:02,42.805,6.029,CST-1368DR,4351,4740,11572,01.199,551
2023-03-17T06:16:04,42.805,6.029,CST-1368DR,4351,4743,11580,01.196,551
2023-03-17T06:19:06,42.805,6.029,CST-1368DR,4351,4740,11570,01.200,551
2023-03-17T06:22:07,42.805,6.029,CST-1368DR,4351,4739,11569,01.200,551
2023-03-17T06:25:09,42.805,6.029,CST-1368DR,4351,4739,11569,01.200,551
2023-03-17T06:28:10,42.805,6.029,CST-1368DR,4351,4747,11588,01.193,551
2023-03-17T06:31:12,42.805,6.029,CST-1368DR,4351,4739,11570,01.200,551
2023-03-17T06:34:13,42.805,6.029,CST-1368DR,4351,4739,11568,01.200,551
2023-03-17T06:37:15,42.805,6.029,CST-1368DR,4351,4743,11580,01.196,551
2023-03-17T06:40:17,42.805,6.029,CST-1368DR,4351,4743,11579,01.196,551
2023-03-17T06:43:18,42.805,6.029,CST-1368DR,4351,4742,11577,01.197,551
2023-03-17T06:46:20,42.805,6.029,CST-1368DR,4351,4741,11573,01.198,551
2023-03-17T06:49:21,42.805,6.029,CST-1368DR,4351,4745,11584,01.195,551
2023-03-17T06:52:23,42.805,6.029,CST-1368DR,4351,4746,11586,01.194,551
2023-03-17T06:55:25,42.805,6.029,CST-1368DR,4351,4744,11582,01.195,551
2023-03-17T06:58:26,42.805,6.029,CST-1368DR,4351,4746,11587,01.194,551
2023-03-17T07:01:28,42.805,6.029,CST-1368DR,4351,4745,11583,01.195,551
2023-03-17T07:04:29,42.805,6.029,CST-1368DR,4351,4742,11576,01.197,551
2023-03-17T07:07:31,42.805,6.029,CST-1368DR,4351,4747,11589,01.193,551
2023-03-17T07:10:32,42.805,6.029,CST-1368DR,4351,4742,11576,01.197,551
2023-03-17T07:13:34,42.805,6.029,CST-1368DR,4351,4746,11585,01.194,551
2023-03-17T07:16:36,42.805,6.029,CST-1368DR,4351,4744,11582,01.195,551
2023-03-17T07:19:37,42.805,6.029,CST-1368DR,4351,4744,11582,01.195,551
2023-03-17T07:22:39,42.805,6.029,CST-1368DR,4351,4744,11581,01.196,551
2023-03-17T07:25:40,42.805,6.029,CST-1368DR,4351,4742,11576,01.197,551
2023-03-17T07:28:42,42.805,6.029,CST-1368DR,4351,4744,11581,01.196,551
2023-03-17T07:31:43,42.805,6.029,CST-1368DR,4351,4747,11589,01.193,551
2023-03-17T07:34:45,42.805,6.029,CST-1368DR,4351,4737,11565,01.201,551
2023-03-17T07:37:47,42.805,6.029,CST-1368DR,4350,4734,11560,01.203,551
2023-03-17T07:40:48,42.805,6.029,CST-1368DR,4350,4742,11579,01.196,551
2023-03-17T07:43:50,42.805,6.029,CST-1368DR,4351,4741,11573,01.198,551
2023-03-17T07:46:51,42.805,6.029,CST-1368DR,4351,4746,11585,01.194,551
2023-03-17T07:49:53,42.805,6.029,CST-1368DR,4351,4746,11586,01.194,551
2023-03-17T07:52:55,42.805,6.029,CST-1368DR,4351,4745,11583,01.195,551
2023-03-17T07:55:56,42.805,6.029,CST-1368DR,4351,4745,11584,01.195,551
2023-03-17T07:58:58,42.805,6.029,CST-1368DR,4351,4743,11579,01.196,551
2023-03-17T08:01:59,42.805,6.029,CST-1368DR,4351,4744,11580,01.196,551
2023-03-17T08:05:01,42.805,6.029,CST-1368DR,4351,4746,11586,01.194,551
2023-03-17T08:08:02,42.805,6.029,CST-1368DR,4351,4746,11587,01.194,551
2023-03-17T08:11:04,42.805,6.029,CST-1368DR,4351,4741,11573,01.198,551
2023-03-17T08:14:06,42.805,6.029,CST-1368DR,4350,4737,11567,01.201,551
2023-03-17T08:17:07,42.805,6.029,CST-1368DR,4351,4744,11581,01.196,551
2023-03-17T08:20:09,42.805,6.029,CST-1368DR,4351,4744,11582,01.195,551
2023-03-17T08:23:10,42.805,6.029,CST-1368DR,4351,4742,11576,01.197,551
2023-03-17T08:26:12,42.805,6.029,CST-1368DR,4351,4741,11574,01.198,551
2023-03-17T08:29:13,42.805,6.029,CST-1368DR,4351,4741,11573,01.198,551
2023-03-17T08:32:15,42.805,6.029,CST-1368DR,4350,4743,11581,01.196,551
2023-03-17T08:35:17,42.805,6.029,CST-1368DR,4351,4745,11584,01.195,551
2023-03-17T08:38:18,42.805,6.029,CST-1368DR,4351,4747,11587,01.194,551
2023-03-17T08:41:20,42.805,6.029,CST-1368DR,4350,4742,11578,01.197,551
2023-03-17T08:44:21,42.805,6.029,CST-1368DR,4350,4745,11587,01.194,551
2023-03-17T08:47:23,42.805,6.029,CST-1368DR,4351,4742,11576,01.197,551
2023-03-17T08:50:25,42.805,6.029,CST-1368DR,4351,4747,11588,01.193,551
2023-03-17T08:53:26,42.805,6.029,CST-1368DR,4351,4736,11562,01.202,551
2023-03-17T08:56:28,42.805,6.029,CST-1368DR,4351,4743,11579,01.196,551
2023-03-17T08:59:29,42.805,6.029,CST-1368DR,4351,4745,11583,01.195,551
2023-03-17T09:02:31,42.805,6.029,CST-1368DR,4351,4744,11580,01.196,551
2023-03-17T09:05:32,42.805,6.029,CST-1368DR,4351,4744,11581,01.196,551
2023-03-17T09:08:34,42.805,6.029,CST-1368DR,4350,4742,11580,01.196,551
2023-03-17T09:11:36,42.805,6.029,CST-1368DR,4351,4742,11576,01.197,551
2023-03-17T09:14:37,42.805,6.029,CST-1368DR,4351,4743,11578,01.197,551
2023-03-17T09:17:39,42.805,6.029,CST-1368DR,4351,4742,11576,01.197,551
2023-03-17T09:20:40,42.805,6.029,CST-1368DR,4351,4740,11572,01.199,551
2023-03-17T09:23:42,42.805,6.029,CST-1368DR,4350,4686,11443,01.244,551
2023-03-17T09:26:43,42.805,6.029,CST-1368DR,4351,4737,11563,01.202,551
2023-03-17T09:29:45,42.805,6.029,CST-1368DR,4350,4738,11570,01.200,551
2023-03-17T09:32:47,42.805,6.029,CST-1368DR,4350,4739,11572,01.199,551
2023-03-17T09:35:48,42.805,6.029,CST-1368DR,4351,4737,11565,01.201,551
2023-03-17T09:38:50,42.805,6.029,CST-1368DR,4351,4736,11562,01.202,551
2023-03-17T09:41:51,42.805,6.029,CST-1368DR,4351,4739,11569,01.200,551
2023-03-17T09:44:53,42.805,6.029,CST-1368DR,4350,4735,11561,01.203,551
2023-03-17T09:47:55,42.805,6.029,CST-1368DR,4351,4735,11559,01.203,551
2023-03-17T09:50:56,42.805,6.029,CST-1368DR,4350,4731,11553,01.205,551
2023-03-17T09:53:58,42.805,6.029,CST-1368DR,4351,4736,11562,01.202,551
2023-03-17T09:56:59,42.805,6.029,CST-1368DR,4350,4737,11567,01.201,551
2023-03-17T10:00:01,42.805,6.029,CST-1368DR,4350,4732,11555,01.205,551
2023-03-17T10:03:02,42.805,6.029,CST-1368DR,4350,4743,11580,01.196,551
2023-03-17T10:06:04,42.805,6.029,CST-1368DR,4350,4742,11580,01.196,551
2023-03-17T10:09:06,42.805,6.029,CST-1368DR,4350,4743,11581,01.196,551
2023-03-17T10:12:07,42.805,6.029,CST-1368DR,4350,4745,11586,01.194,551
2023-03-17T10:15:09,42.805,6.029,CST-1368DR,4350,4743,11580,01.196,551
2023-03-17T10:18:10,42.805,6.029,CST-1368DR,4351,4746,11586,01.194,551
2023-03-17T10:21:12,42.805,6.029,CST-1368DR,4350,4745,11586,01.194,551
2023-03-17T10:24:13,42.805,6.029,CST-1368DR,4351,4743,11578,01.197,551
2023-03-17T10:27:15,42.805,6.029,CST-1368DR,4350,4741,11576,01.197,551
2023-03-17T10:30:17,42.805,6.029,CST-1368DR,4351,4746,11587,01.194,551
2023-03-17T10:33:18,42.805,6.029,CST-1368DR,4350,4740,11573,01.198,551
2023-03-17T10:36:20,42.805,6.029,CST-1368DR,4350,4745,11587,01.194,551
2023-03-17T10:39:21,42.805,6.029,CST-1368DR,4350,4745,11587,01.194,551
2023-03-17T10:42:23,42.805,6.029,CST-1368DR,4350,4739,11572,01.199,551
2023-03-17T10:45:25,42.805,6.029,CST-1368DR,4350,4742,11579,01.196,551
2023-03-17T10:48:26,42.805,6.029,CST-1368DR,4350,4742,11578,01.197,551
2023-03-17T10:51:28,42.805,6.029,CST-1368DR,4350,4739,11572,01.199,551
2023-03-17T10:54:29,42.805,6.029,CST-1368DR,4350,4743,11581,01.196,551
2023-03-17T10:57:31,42.805,6.029,CST-1368DR,4351,4742,11575,01.198,551
2023-03-17T11:00:32,42.805,6.029,CST-1368DR,4350,4746,11588,01.193,551
2023-03-17T11:03:34,42.805,6.029,CST-1368DR,4351,4746,11586,01.194,551
2023-03-17T11:06:36,42.805,6.029,CST-1368DR,4351,4746,11585,01.194,551
2023-03-17T11:09:37,42.805,6.029,CST-1368DR,4350,4744,11583,01.195,551
2023-03-17T11:12:39,42.805,6.029,CST-1368DR,4351,4746,11586,01.194,551
2023-03-17T11:15:40,42.805,6.029,CST-1368DR,4350,4744,11583,01.195,551
2023-03-17T11:18:42,42.805,6.029,CST-1368DR,4351,4746,11587,01.194,551
2023-03-17T11:21:43,42.805,6.029,CST-1368DR,4351,4744,11581,01.196,551
2023-03-17T11:24:45,42.805,6.029,CST-1368DR,4350,4742,11579,01.196,551
2023-03-17T11:27:47,42.805,6.029,CST-1368DR,4350,4743,11582,01.195,551
2023-03-17T11:30:48,42.805,6.029,CST-1368DR,4350,4747,11591,01.192,551
2023-03-17T11:33:50,42.805,6.029,CST-1368DR,4350,4744,11584,01.195,551
2023-03-17T11:36:51,42.805,6.029,CST-1368DR,4350,4739,11570,01.200,551
2023-03-17T11:39:53,42.805,6.029,CST-1368DR,4350,4740,11574,01.198,551
2023-03-17T11:42:54,42.805,6.029,CST-1368DR,4350,4745,11586,01.194,551
2023-03-17T11:45:56,42.805,6.029,CST-1368DR,4350,4744,11585,01.194,551
2023-03-17T11:48:58,42.805,6.029,CST-1368DR,4350,4747,11591,01.192,551
2023-03-17T11:51:59,42.805,6.029,CST-1368DR,4350,4741,11575,01.198,551
2023-03-17T11:55:01,42.805,6.029,CST-1368DR,4350,4739,11572,01.199,551
2023-03-17T11:58:02,42.805,6.029,CST-1368DR,4350,4740,11573,01.198,551
2023-03-17T12:01:04,42.805,6.029,CST-1368DR,4350,4742,11579,01.196,551
2023-03-17T12:04:06,42.805,6.029,CST-1368DR,4350,4744,11585,01.194,551
2023-03-17T12:07:07,42.805,6.029,CST-1368DR,4350,4740,11574,01.198,551
2023-03-17T12:10:09,42.805,6.029,CST-1368DR,4350,4744,11584,01.195,551
2023-03-17T12:13:10,42.805,6.029,CST-1368DR,4350,4738,11569,01.200,551
2023-03-17T12:16:12,42.805,6.029,CST-1368DR,4350,4743,11581,01.196,551
2023-03-17T12:19:13,42.805,6.029,CST-1368DR,4350,4746,11589,01.193,551
2023-03-17T12:22:15,42.805,6.029,CST-1368DR,4350,4746,11588,01.193,551
2023-03-17T12:25:17,42.805,6.029,CST-1368DR,4351,4798,11713,01.150,551
2023-03-17T12:28:18,42.805,6.029,CST-1368DR,4351,4799,11715,01.150,551
2023-03-17T12:31:20,42.805,6.029,CST-1368DR,4351,4798,11713,01.150,551
2023-03-17T12:34:21,42.805,6.029,CST-1368DR,4351,4798,11712,01.151,551
2023-03-17T12:37:23,42.805,6.029,CST-1368DR,4351,4799,11716,01.149,551
2023-03-17T12:40:24,42.805,6.029,CST-1368DR,4351,4797,11711,01.151,551
2023-03-17T12:43:26,42.805,6.029,CST-1368DR,4351,4799,11715,01.150,551
2023-03-17T12:46:28,42.805,6.029,CST-1368DR,4351,4798,11713,01.150,551
2023-03-17T12:49:29,42.805,6.029,CST-1368DR,4351,4798,11713,01.150,551
2023-03-17T12:52:31,42.805,6.029,CST-1368DR,4351,4797,11711,01.151,551
2023-03-17T12:55:32,42.805,6.029,CST-1368DR,4351,4799,11716,01.149,551
2023-03-17T12:58:34,42.805,6.029,CST-1368DR,4351,4799,11716,01.149,551
2023-03-17T13:01:36,42.805,6.029,CST-1368DR,4351,4802,11722,01.147,551
2023-03-17T13:04:37,42.805,6.029,CST-1368DR,4351,4798,11714,01.150,551
2023-03-17T13:07:39,42.805,6.029,CST-1368DR,4351,4799,11715,01.150,551
2023-03-17T13:10:40,42.805,6.029,CST-1368DR,4351,4798,11713,01.150,551
2023-03-17T13:13:42,42.805,6.029,CST-1368DR,4351,4799,11716,01.149,551
2023-03-17T13:16:43,42.805,6.029,CST-1368DR,4351,4799,11716,01.149,551
2023-03-17T13:19:45,42.805,6.029,CST-1368DR,4351,4799,11716,01.149,551
2023-03-17T13:22:47,42.805,6.029,CST-1368DR,4351,4799,11715,01.150,551
2023-03-17T13:25:48,42.805,6.029,CST-1368DR,4351,4799,11716,01.149,551
2023-03-17T13:28:50,42.805,6.029,CST-1368DR,4351,4798,11713,01.150,551
2023-03-17T13:31:51,42.805,6.029,CST-1368DR,4351,4800,11717,01.149,551
2023-03-17T13:34:53,42.805,6.029,CST-1368DR,4351,4801,11721,01.148,551
2023-03-17T13:37:54,42.805,6.029,CST-1368DR,4351,4800,11719,01.148,551
2023-03-17T13:40:56,42.805,6.029,CST-1368DR,4351,4800,11719,01.148,551
2023-03-17T13:43:58,42.805,6.029,CST-1368DR,4351,4800,11717,01.149,551
2023-03-17T13:46:59,42.805,6.029,CST-1368DR,4351,4800,11718,01.149,551
2023-03-17T13:50:01,42.805,6.029,CST-1368DR,4351,4800,11717,01.149,551
2023-03-17T13:53:02,42.805,6.029,CST-1368DR,4351,4800,11718,01.149,551
2023-03-17T13:56:04,42.805,6.029,CST-1368DR,4351,4801,11721,01.148,551
2023-03-17T13:59:06,42.805,6.029,CST-1368DR,4351,4800,11719,01.148,551
2023-03-17T14:02:07,42.805,6.029,CST-1368DR,4351,4799,11715,01.150,551
2023-03-17T14:05:09,42.805,6.029,CST-1368DR,4351,4798,11714,01.150,551
2023-03-17T14:08:10,42.805,6.029,CST-1368DR,4351,4798,11713,01.150,551
2023-03-17T14:11:12,42.805,6.029,CST-1368DR,4351,4800,11719,01.148,551
2023-03-17T14:14:13,42.805,6.029,CST-1368DR,4351,4798,11713,01.150,551
2023-03-17T14:17:15,42.805,6.029,CST-1368DR,4351,4800,11717,01.149,551
2023-03-17T14:20:17,42.805,6.029,CST-1368DR,4351,4798,11714,01.150,551
2023-03-17T14:23:18,42.805,6.029,CST-1368DR,4351,4800,11717,01.149,551
2023-03-17T14:26:20,42.805,6.029,CST-1368DR,4351,4797,11711,01.151,551
2023-03-17T14:29:21,42.805,6.029,CST-1368DR,4351,4798,11712,01.151,551
2023-03-17T14:32:23,42.805,6.029,CST-1368DR,4351,4798,11713,01.150,551
2023-03-17T14:35:24,42.805,6.029,CST-1368DR,4351,4797,11711,01.151,551
2023-03-17T14:38:26,42.805,6.029,CST-1368DR,4351,4798,11712,01.151,551
2023-03-17T14:41:28,42.805,6.029,CST-1368DR,4351,4798,11712,01.151,551
2023-03-17T14:44:29,42.805,6.029,CST-1368DR,4351,4797,11711,01.151,551
2023-03-17T14:47:31,42.805,6.029,CST-1368DR,4351,4798,11712,01.151,551
2023-03-17T14:50:32,42.805,6.029,CST-1368DR,4351,4797,11710,01.151,551
2023-03-17T14:53:34,42.805,6.029,CST-1368DR,4351,4797,11710,01.151,551
2023-03-17T14:56:36,42.805,6.029,CST-1368DR,4351,4798,11712,01.151,551
2023-03-17T14:59:37,42.805,6.029,CST-1368DR,4351,4798,11714,01.150,551
2023-03-17T15:02:39,42.805,6.029,CST-1368DR,4351,4798,11712,01.151,551
2023-03-17T15:05:40,42.805,6.029,CST-1368DR,4351,4797,11711,01.151,551
2023-03-17T15:08:42,42.805,6.029,CST-1368DR,4351,4796,11708,01.152,551
2023-03-17T15:11:43,42.805,6.029,CST-1368DR,4351,4797,11711,01.151,551
2023-03-17T15:14:45,42.805,6.029,CST-1368DR,4351,4797,11710,01.151,551
2023-03-17T15:17:47,42.805,6.029,CST-1368DR,4351,4797,11711,01.151,551
2023-03-17T15:20:48,42.805,6.029,CST-1368DR,4351,4797,11711,01.151,551
2023-03-17T15:23:50,42.805,6.029,CST-1368DR,4351,4798,11714,01.150,551
2023-03-17T15:26:51,42.805,6.029,CST-1368DR,4351,4799,11715,01.150,551
2023-03-17T15:29:53,42.805,6.029,CST-1368DR,4351,4797,11710,01.151,551
2023-03-17T15:32:54,42.805,6.029,CST-1368DR,4351,4796,11708,01.152,551
2023-03-17T15:35:56,42.805,6.029,CST-1368DR,4351,4796,11709,01.152,551
2023-03-17T15:38:58,42.805,6.029,CST-1368DR,4351,4796,11709,01.152,551
2023-03-17T15:41:59,42.805,6.029,CST-1368DR,4351,4796,11708,01.152,551
2023-03-17T15:45:01,42.805,6.029,CST-1368DR,4351,4796,11708,01.152,551
2023-03-17T15:48:02,42.805,6.029,CST-1368DR,4351,4795,11706,01.153,551
2023-03-17T15:51:04,42.805,6.029,CST-1368DR,4351,4797,11710,01.151,551
2023-03-17T15:54:06,42.805,6.029,CST-1368DR,4351,4796,11708,01.152,551
2023-03-17T15:57:07,42.805,6.029,CST-1368DR,4351,4793,11701,01.154,551
2023-03-17T16:00:09,42.805,6.029,CST-1368DR,4351,4794,11704,01.153,551
2023-03-17T16:03:10,42.805,6.029,CST-1368DR,4351,4794,11704,01.153,551
2023-03-17T16:06:12,42.805,6.029,CST-1368DR,4351,4797,11711,01.151,551
2023-03-17T16:09:13,42.805,6.029,CST-1368DR,4351,4796,11708,01.152,551
2023-03-17T16:12:15,42.805,6.029,CST-1368DR,4351,4794,11702,01.154,551
2023-03-17T16:15:17,42.805,6.029,CST-1368DR,4351,4796,11708,01.152,551
2023-03-17T16:18:18,42.805,6.029,CST-1368DR,4351,4798,11712,01.151,551
2023-03-17T16:21:20,42.805,6.029,CST-1368DR,4351,4793,11700,01.155,551
2023-03-17T16:24:21,42.805,6.029,CST-1368DR,4351,4793,11700,01.155,551
2023-03-17T16:27:23,42.805,6.029,CST-1368DR,4351,4797,11710,01.151,551
2023-03-17T16:30:24,42.805,6.029,CST-1368DR,4351,4791,11696,01.156,551
2023-03-17T16:33:26,42.805,6.029,CST-1368DR,4351,4790,11694,01.157,551
2023-03-17T16:36:28,42.805,6.029,CST-1368DR,4351,4787,11686,01.160,551